QPF
0.11 0.09 0.09 0.09 0.09 0.08 0.07 0.07 0.07 0.07 0.06 0.05 0.04 0.05 0.06 0.08 0.12 0.15 0.16 0.16 0.15 0.15 0.15 0.18 0.17 0.12 0.09 0.09 0.08 0.07 0.07 0.07 0.08 0.08 0.09 0.08 0.06 0.06 0.05 0.04 0.04 0.04 0.04
0.09 0.09 0.09 0.09 0.08 0.07 0.07 0.07 0.06 0.05 0.05 0.05 0.03 0.03 0.04 0.05 0.06 0.09 0.14 0.20 0.18 0.13 0.11 0.12 0.13 0.11 0.10 0.08 0.07 0.07 0.06 0.06 0.07 0.08 0.09 0.09 0.09 0.08 0.07 0.05 0.04 0.03 0.03
0.07 0.08 0.08 0.10 0.09 0.08 0.07 0.06 0.05 0.05 0.05 0.04 0.03 0.02 0.02 0.03 0.06 0.08 0.10 0.12 0.16 0.15 0.11 0.10 0.11 0.10 0.10 0.09 0.08 0.08 0.08 0.07 0.06 0.06 0.09 0.09 0.08 0.08 0.08 0.07 0.07 0.07 0.06
0.07 0.06 0.06 0.07 0.11 0.11 0.07 0.06 0.06 0.06 0.06 0.06 0.04 0.03 0.02 0.03 0.04 0.06 0.08 0.08 0.09 0.10 0.09 0.09 0.09 0.09 0.09 0.09 0.08 0.08 0.08 0.07 0.07 0.06 0.07 0.09 0.09 0.09 0.09 0.09 0.09 0.09 0.07
0.07 0.07 0.06 0.05 0.05 0.06 0.06 0.07 0.08 0.10 0.10 0.10 0.07 0.05 0.03 0.03 0.03 0.03 0.05 0.07 0.08 0.07 0.07 0.07 0.07 0.07 0.08 0.08 0.08 0.09 0.08 0.08 0.08 0.08 0.07 0.08 0.09 0.09 0.10 0.10 0.10 0.10 0.08
0.08 0.07 0.06 0.05 0.05 0.05 0.05 0.07 0.09 0.08 0.08 0.08 0.07 0.05 0.04 0.03 0.03 0.03 0.06 0.07 0.05 0.06 0.07 0.08 0.07 0.05 0.07 0.08 0.08 0.09 0.09 0.08 0.08 0.08 0.08 0.09 0.09 0.09 0.08 0.07 0.09 0.11 0.09
0.06 0.06 0.05 0.04 0.04 0.04 0.05 0.06 0.07 0.06 0.06 0.07 0.06 0.05 0.04 0.03 0.02 0.02 0.03 0.04 0.04 0.05 0.07 0.07 0.05 0.03 0.03 0.05 0.06 0.07 0.08 0.09 0.09 0.09 0.08 0.09 0.09 0.09 0.09 0.08 0.08 0.09 0.09
0.06 0.05 0.05 0.04 0.04 0.04 0.04 0.05 0.05 0.05 0.05 0.06 0.06 0.05 0.04 0.03 0.02 0.02 0.02 0.03 0.04 0.04 0.03 0.03 0.04 0.02 0.02 0.02 0.02 0.04 0.06 0.07 0.08 0.10 0.10 0.09 0.08 0.07 0.09 0.10 0.10 0.09 0.09
0.06 0.05 0.04 0.04 0.05 0.06 0.05 0.05 0.05 0.05 0.05 0.06 0.06 0.06 0.04 0.03 0.03 0.02 0.02 0.02 0.02 0.02 0.02 0.02 0.03 0.03 0.02 0.02 0.02 0.03 0.04 0.05 0.06 0.08 0.09 0.10 0.10 0.08 0.07 0.07 0.08 0.09 0.10
0.05 0.05 0.05 0.05 0.05 0.06 0.08 0.09 0.09 0.08 0.07 0.06 0.06 0.06 0.05 0.04 0.04 0.02 0.02 0.01 0.02 0.03 0.02 0.02 0.02 0.02 0.03 0.03 0.03 0.03 0.03 0.03 0.04 0.06 0.09 0.10 0.11 0.11 0.08 0.07 0.08 0.08 0.08
0.06 0.07 0.07 0.07 0.09 0.09 0.10 0.10 0.09 0.10 0.09 0.07 0.07 0.07 0.05 0.04 0.04 0.03 0.02 0.01 0.02 0.02 0.02 0.03 0.03 0.03 0.04 0.03 0.03 0.02 0.02 0.02 0.03 0.04 0.06 0.09 0.10 0.11 0.10 0.08 0.08 0.09 0.10
0.06 0.08 0.10 0.10 0.09 0.09 0.10 0.11 0.10 0.12 0.11 0.09 0.08 0.08 0.06 0.04 0.03 0.04 0.03 0.02 0.03 0.03 0.03 0.03 0.04 0.04 0.06 0.05 0.04 0.04 0.04 0.04 0.03 0.03 0.03 0.05 0.07 0.09 0.10 0.09 0.09 0.09 0.09
0.08 0.09 0.08 0.07 0.05 0.04 0.03 0.04 0.04 0.05 0.07 0.08 0.07 0.05 0.04 0.03 0.02 0.02 0.02 0.02 0.02 0.03 0.04 0.04 0.03 0.05 0.07 0.07 0.06 0.06 0.05 0.05 0.04 0.04 0.03 0.04 0.06 0.07 0.08 0.09 0.10 0.09 0.07
0.08 0.07 0.05 0.04 0.02 0.02 0.02 0.02 0.02 0.02 0.03 0.06 0.07 0.05 0.04 0.02 0.02 0.02 0.03 0.03 0.02 0.02 0.03 0.04 0.04 0.04 0.06 0.07 0.06 0.06 0.06 0.06 0.06 0.05 0.05 0.05 0.06 0.07 0.07 0.07 0.06 0.07 0.07
0.06 0.05 0.03 0.03 0.02 0.02 0.02 0.03 0.02 0.02 0.02 0.04 0.06 0.06 0.05 0.03 0.02 0.03 0.04 0.04 0.03 0.02 0.03 0.03 0.04 0.04 0.05 0.05 0.07 0.05 0.04 0.06 0.07 0.07 0.07 0.07 0.07 0.07 0.05 0.05 0.05 0.04 0.04
0.04 0.03 0.03 0.02 0.02 0.02 0.02 0.02 0.02 0.02 0.03 0.03 0.04 0.04 0.04 0.04 0.03 0.04 0.05 0.06 0.06 0.06 0.05 0.04 0.05 0.05 0.05 0.06 0.09 0.08 0.08 0.07 0.07 0.08 0.08 0.07 0.07 0.07 0.05 0.04 0.05 0.04 0.04
0.03 0.03 0.03 0.02 0.02 0.01 0.02 0.02 0.02 0.02 0.03 0.03 0.03 0.03 0.03 0.03 0.03 0.03 0.03 0.04 0.05 0.06 0.06 0.07 0.06 0.04 0.05 0.07 0.08 0.06 0.08 0.08 0.07 0.08 0.08 0.07 0.05 0.04 0.04 0.03 0.03 0.05 0.05
0.03 0.03 0.03 0.02 0.02 0.02 0.03 0.03 0.02 0.02 0.03 0.03 0.03 0.03 0.02 0.03 0.03 0.03 0.04 0.04 0.04 0.06 0.06 0.06 0.05 0.04 0.05 0.06 0.06 0.06 0.07 0.08 0.09 0.08 0.06 0.05 0.05 0.05 0.04 0.03 0.03 0.04 0.06
0.04 0.03 0.03 0.03 0.04 0.04 0.04 0.02 0.01 0.03 0.03 0.02 0.03 0.03 0.02 0.03 0.03 0.03 0.03 0.03 0.04 0.05 0.06 0.05 0.05 0.04 0.04 0.04 0.04 0.05 0.07 0.07 0.07 0.07 0.06 0.05 0.04 0.04 0.03 0.03 0.03 0.03 0.05
0.05 0.03 0.04 0.05 0.05 0.05 0.03 0.02 0.02 0.02 0.02 0.02 0.02 0.02 0.02 0.02 0.02 0.02 0.02 0.03 0.05 0.04 0.04 0.04 0.04 0.03 0.03 0.02 0.02 0.03 0.05 0.05 0.05 0.04 0.04 0.04 0.04 0.03 0.03 0.03 0.02 0.02 0.04
0.06 0.05 0.06 0.06 0.05 0.04 0.03 0.03 0.03 0.03 0.03 0.03 0.03 0.02 0.02 0.01 0.02 0.02 0.02 0.03 0.06 0.06 0.05 0.05 0.05 0.03 0.02 0.02 0.01 0.01 0.02 0.03 0.04 0.04 0.03 0.03 0.04 0.03 0.03 0.03 0.02 0.02 0.02
0.05 0.05 0.06 0.06 0.05 0.04 0.03 0.03 0.02 0.02 0.02 0.02 0.02 0.02 0.01 0.01 0.01 0.01 0.01 0.03 0.06 0.06 0.05 0.05 0.05 0.05 0.03 0.02 0.02 0.02 0.02 0.02 0.03 0.03 0.03 0.03 0.03 0.04 0.04 0.05 0.05 0.04 0.04
0.09 0.11 0.11 0.09 0.07 0.05 0.03 0.02 0.02 0.01 0.01 0.01 0.01 0.01 0.01 0.01 0.01 0.01 0.02 0.03 0.05 0.06 0.05 0.03 0.03 0.03 0.04 0.03 0.02 0.02 0.02 0.03 0.03 0.03 0.03 0.03 0.03 0.03 0.02 0.03 0.05 0.05 0.05
0.09 0.10 0.10 0.08 0.05 0.03 0.02 0.01 0.02 0.02 0.02 0.02 0.02 0.02 0.02 0.02 0.02 0.02 0.02 0.03 0.05 0.06 0.05 0.02 0.01 0.02 0.03 0.03 0.02 0.02 0.01 0.02 0.03 0.03 0.03 0.04 0.04 0.04 0.04 0.03 0.03 0.03 0.03
0.04 0.03 0.02 0.02 0.01 0.01 0.01 0.01 0.01 0.01 0.02 0.02 0.03 0.03 0.03 0.04 0.04 0.04 0.03 0.04 0.05 0.05 0.04 0.02 0.02 0.01 0.02 0.02 0.02 0.02 0.01 0.01 0.02 0.02 0.03 0.04 0.04 0.04 0.03 0.03 0.04 0.05 0.04
0.01 0.01 0.01 0.01 0.01 0.01 0.01 0.01 0.02 0.01 0.02 0.02 0.01 0.02 0.03 0.03 0.04 0.04 0.04 0.04 0.03 0.03 0.03 0.02 0.02 0.02 0.01 0.02 0.02 0.02 0.02 0.01 0.01 0.02 0.03 0.03 0.04 0.04 0.04 0.03 0.04 0.05 0.05
MSLP
1009.74 1009.23 1008.71 1008.27 1007.97 1007.85 1007.92 1008.13 1008.41 1008.70 1008.92 1009.03 1009.04 1008.95 1008.80 1008.65 1008.52 1008.46 1008.47 1008.54 1008.64 1008.78 1008.92 1009.06 1009.22 1009.40 1009.61 1009.88 1010.19 1010.54 1010.93 1011.32 1011.71 1012.09 1012.44 1012.76 1013.07 1013.36 1013.64 1013.92 1014.21 1014.52 1014.84
1009.82 1009.28 1008.73 1008.27 1007.94 1007.79 1007.81 1007.95 1008.15 1008.35 1008.49 1008.52 1008.45 1008.31 1008.12 1007.94 1007.81 1007.76 1007.78 1007.87 1008.01 1008.17 1008.34 1008.51 1008.68 1008.86 1009.06 1009.29 1009.57 1009.89 1010.25 1010.63 1011.02 1011.41 1011.79 1012.16 1012.50 1012.83 1013.15 1013.45 1013.76 1014.07 1014.39
1009.93 1009.39 1008.86 1008.40 1008.08 1007.91 1007.87 1007.94 1008.04 1008.13 1008.14 1008.07 1007.90 1007.68 1007.44 1007.23 1007.09 1007.03 1007.07 1007.18 1007.34 1007.52 1007.72 1007.91 1008.09 1008.27 1008.47 1008.69 1008.94 1009.23 1009.55 1009.90 1010.28 1010.67 1011.06 1011.46 1011.84 1012.21 1012.57 1012.92 1013.25 1013.58 1013.92
1010.07 1009.57 1009.08 1008.66 1008.36 1008.19 1008.11 1008.10 1008.10 1008.05 1007.93 1007.73 1007.46 1007.15 1006.85 1006.59 1006.42 1006.35 1006.38 1006.48 1006.64 1006.84 1007.05 1007.25 1007.45 1007.64 1007.84 1008.05 1008.28 1008.54 1008.83 1009.15 1009.50 1009.87 1010.27 1010.67 1011.09 1011.50 1011.90 1012.29 1012.67 1013.03 1013.39
1010.23 1009.78 1009.36 1009.01 1008.76 1008.60 1008.50 1008.41 1008.31 1008.14 1007.88 1007.55 1007.17 1006.77 1006.40 1006.09 1005.88 1005.77 1005.76 1005.84 1005.97 1006.15 1006.35 1006.56 1006.76 1006.97 1007.18 1007.39 1007.61 1007.85 1008.11 1008.39 1008.70 1009.05 1009.42 1009.83 1010.26 1010.71 1011.15 1011.58 1011.99 1012.38 1012.76
1010.40 1010.01 1009.66 1009.40 1009.21 1009.08 1008.97 1008.83 1008.64 1008.36 1008.00 1007.56 1007.09 1006.61 1006.17 1005.80 1005.53 1005.35 1005.28 1005.29 1005.36 1005.49 1005.65 1005.84 1006.04 1006.25 1006.47 1006.70 1006.92 1007.15 1007.38 1007.63 1007.90 1008.21 1008.57 1008.96 1009.40 1009.86 1010.33 1010.79 1011.23 1011.65 1012.04
1010.57 1010.23 1009.97 1009.78 1009.66 1009.57 1009.46 1009.30 1009.06 1008.71 1008.27 1007.76 1007.21 1006.68 1006.18 1005.75 1005.40 1005.14 1004.97 1004.87 1004.85 1004.88 1004.97 1005.11 1005.29 1005.51 1005.74 1005.97 1006.21 1006.43 1006.65 1006.87 1007.12 1007.40 1007.72 1008.10 1008.52 1008.98 1009.46 1009.94 1010.40 1010.83 1011.22
1010.74 1010.44 1010.24 1010.13 1010.07 1010.02 1009.93 1009.76 1009.50 1009.12 1008.64 1008.10 1007.53 1006.95 1006.41 1005.92 1005.49 1005.13 1004.84 1004.61 1004.45 1004.36 1004.35 1004.41 1004.55 1004.74 1004.97 1005.22 1005.47 1005.70 1005.92 1006.13 1006.35 1006.60 1006.90 1007.25 1007.66 1008.12 1008.60 1009.07 1009.53 1009.95 1010.34
1010.91 1010.64 1010.48 1010.41 1010.39 1010.38 1010.31 1010.16 1009.90 1009.53 1009.06 1008.53 1007.96 1007.38 1006.82 1006.28 1005.77 1005.29 1004.86 1004.47 1004.15 1003.92 1003.78 1003.75 1003.82 1003.98 1004.20 1004.45 1004.71 1004.95 1005.17 1005.38 1005.58 1005.82 1006.10 1006.43 1006.83 1007.27 1007.74 1008.20 1008.65 1009.06 1009.43
1011.09 1010.82 1010.67 1010.62 1010.62 1010.63 1010.58 1010.45 1010.22 1009.88 1009.45 1008.95 1008.42 1007.86 1007.29 1006.71 1006.13 1005.55 1004.98 1004.44 1003.96 1003.57 1003.29 1003.15 1003.13 1003.24 1003.43 1003.67 1003.93 1004.18 1004.41 1004.61 1004.82 1005.05 1005.31 1005.64 1006.02 1006.45 1006.90 1007.35 1007.77 1008.16 1008.51
1011.27 1010.99 1010.83 1010.77 1010.76 1010.76 1010.72 1010.61 1010.41 1010.11 1009.73 1009.30 1008.81 1008.29 1007.74 1007.14 1006.50 1005.83 1005.14 1004.46 1003.83 1003.30 1002.89 1002.63 1002.53 1002.57 1002.72 1002.93 1003.17 1003.41 1003.64 1003.84 1004.04 1004.27 1004.53 1004.85 1005.22 1005.63 1006.07 1006.50 1006.91 1007.28 1007.61
1011.47 1011.15 1010.96 1010.86 1010.83 1010.80 1010.75 1010.64 1010.46 1010.21 1009.88 1009.51 1009.08 1008.60 1008.07 1007.47 1006.80 1006.06 1005.29 1004.50 1003.76 1003.11 1002.59 1002.23 1002.04 1002.00 1002.09 1002.26 1002.46 1002.68 1002.88 1003.07 1003.27 1003.48 1003.74 1004.05 1004.41 1004.81 1005.24 1005.66 1006.05 1006.41 1006.74
1011.65 1011.30 1011.07 1010.92 1010.84 1010.77 1010.69 1010.57 1010.40 1010.17 1009.88 1009.55 1009.18 1008.74 1008.24 1007.65 1006.97 1006.21 1005.39 1004.55 1003.74 1003.01 1002.41 1001.97 1001.70 1001.58 1001.60 1001.70 1001.85 1002.01 1002.18 1002.34 1002.51 1002.71 1002.95 1003.25 1003.60 1003.99 1004.40 1004.81 1005.20 1005.55 1005.89
1011.81 1011.44 1011.16 1010.96 1010.82 1010.70 1010.58 1010.43 1010.24 1010.02 1009.75 1009.46 1009.12 1008.72 1008.25 1007.69 1007.03 1006.28 1005.45 1004.60 1003.77 1003.01 1002.36 1001.87 1001.53 1001.34 1001.28 1001.30 1001.37 1001.46 1001.57 1001.68 1001.81 1001.98 1002.19 1002.47 1002.80 1003.17 1003.56 1003.96 1004.35 1004.72 1005.08
1011.93 1011.55 1011.24 1011.00 1010.80 1010.63 1010.45 1010.26 1010.05 1009.81 1009.54 1009.26 1008.94 1008.57 1008.13 1007.61 1006.99 1006.27 1005.49 1004.67 1003.86 1003.10 1002.45 1001.93 1001.54 1001.29 1001.14 1001.08 1001.06 1001.07 1001.10 1001.14 1001.21 1001.33 1001.51 1001.74 1002.04 1002.38 1002.75 1003.14 1003.52 1003.91 1004.30
1012.02 1011.63 1011.30 1011.03 1010.79 1010.56 1010.34 1010.10 1009.84 1009.57 1009.30 1009.00 1008.69 1008.34 1007.94 1007.46 1006.89 1006.24 1005.52 1004.76 1004.00 1003.29 1002.65 1002.12 1001.71 1001.40 1001.18 1001.03 1000.92 1000.84 1000.78 1000.75 1000.76 1000.81 1000.93 1001.12 1001.37 1001.67 1002.01 1002.37 1002.75 1003.15 1003.58
1012.05 1011.68 1011.35 1011.05 1010.78 1010.51 1010.24 1009.95 1009.66 1009.35 1009.05 1008.74 1008.43 1008.09 1007.72 1007.28 1006.77 1006.19 1005.55 1004.87 1004.19 1003.53 1002.93 1002.41 1001.98 1001.63 1001.35 1001.12 1000.93 1000.77 1000.63 1000.53 1000.46 1000.45 1000.51 1000.64 1000.83 1001.08 1001.37 1001.71 1002.08 1002.49 1002.94
1012.05 1011.70 1011.37 1011.06 1010.76 1010.46 1010.15 1009.82 1009.49 1009.15 1008.82 1008.50 1008.18 1007.85 1007.50 1007.11 1006.66 1006.15 1005.58 1004.98 1004.37 1003.78 1003.22 1002.72 1002.28 1001.90 1001.58 1001.30 1001.04 1000.81 1000.61 1000.44 1000.32 1000.25 1000.25 1000.31 1000.44 1000.63 1000.88 1001.18 1001.53 1001.94 1002.41
1012.01 1011.67 1011.35 1011.03 1010.71 1010.38 1010.03 1009.68 1009.31 1008.95 1008.60 1008.27 1007.95 1007.63 1007.30 1006.94 1006.54 1006.09 1005.59 1005.06 1004.51 1003.97 1003.45 1002.97 1002.53 1002.14 1001.79 1001.47 1001.18 1000.91 1000.66 1000.45 1000.29 1000.18 1000.13 1000.14 1000.21 1000.35 1000.54 1000.79 1001.11 1001.51 1001.99
1011.95 1011.61 1011.28 1010.94 1010.60 1010.24 1009.87 1009.49 1009.10 1008.73 1008.37 1008.04 1007.72 1007.42 1007.11 1006.77 1006.41 1006.00 1005.55 1005.06 1004.56 1004.05 1003.56 1003.10 1002.67 1002.28 1001.92 1001.59 1001.28 1001.00 1000.74 1000.52 1000.33 1000.20 1000.11 1000.08 1000.11 1000.19 1000.33 1000.55 1000.83 1001.20 1001.67
1011.85 1011.50 1011.15 1010.79 1010.42 1010.03 1009.64 1009.24 1008.84 1008.46 1008.11 1007.79 1007.49 1007.20 1006.90 1006.59 1006.25 1005.86 1005.43 1004.98 1004.50 1004.02 1003.55 1003.10 1002.68 1002.30 1001.94 1001.62 1001.32 1001.04 1000.79 1000.58 1000.39 1000.25 1000.15 1000.09 1000.08 1000.13 1000.23 1000.40 1000.66 1001.00 1001.44
1011.73 1011.35 1010.97 1010.57 1010.17 1009.75 1009.34 1008.93 1008.53 1008.17 1007.83 1007.52 1007.24 1006.96 1006.68 1006.38 1006.05 1005.67 1005.26 1004.81 1004.34 1003.87 1003.41 1002.97 1002.57 1002.20 1001.86 1001.55 1001.28 1001.02 1000.80 1000.60 1000.43 1000.29 1000.18 1000.12 1000.09 1000.11 1000.18 1000.33 1000.55 1000.86 1001.28
1011.59 1011.17 1010.74 1010.31 1009.87 1009.43 1009.00 1008.59 1008.21 1007.86 1007.55 1007.26 1006.99 1006.73 1006.46 1006.16 1005.83 1005.45 1005.03 1004.58 1004.11 1003.65 1003.20 1002.77 1002.38 1002.03 1001.72 1001.43 1001.18 1000.95 1000.75 1000.57 1000.41 1000.28 1000.18 1000.11 1000.07 1000.08 1000.14 1000.26 1000.46 1000.75 1001.13
1011.42 1010.96 1010.49 1010.02 1009.56 1009.11 1008.68 1008.28 1007.92 1007.59 1007.30 1007.04 1006.79 1006.54 1006.26 1005.96 1005.61 1005.22 1004.79 1004.34 1003.87 1003.41 1002.97 1002.57 1002.20 1001.86 1001.57 1001.31 1001.07 1000.86 1000.67 1000.49 1000.34 1000.21 1000.11 1000.04 1000.00 1000.01 1000.06 1000.17 1000.36 1000.62 1000.98
1011.22 1010.73 1010.24 1009.75 1009.28 1008.83 1008.42 1008.04 1007.70 1007.41 1007.14 1006.89 1006.65 1006.40 1006.12 1005.80 1005.43 1005.03 1004.59 1004.13 1003.67 1003.23 1002.81 1002.42 1002.07 1001.76 1001.49 1001.24 1001.01 1000.79 1000.59 1000.41 1000.24 1000.10 999.99 999.90 999.86 999.87 999.92 1000.04 1000.22 1000.47 1000.79
1011.00 1010.50 1010.00 1009.52 1009.06 1008.64 1008.25 1007.90 1007.60 1007.33 1007.08 1006.84 1006.60 1006.33 1006.03 1005.69 1005.30 1004.88 1004.44 1003.99 1003.55 1003.12 1002.73 1002.38 1002.06 1001.78 1001.51 1001.27 1001.03 1000.79 1000.57 1000.35 1000.15 999.97 999.83 999.73 999.68 999.68 999.74 999.85 1000.03 1000.27 1000.57
Thickness
5726 5724 5722 5720 5719 5717 5715 5713 5712 5711 5710 5709 5708 5707 5707 5706 5705 5705 5704 5704 5705 5705 5704 5703 5702 5702 5702 5701 5701 5700 5700 5700 5699 5698 5698 5698 5697 5697 5696 5696 5695 5695 5694
5722 5720 5717 5715 5714 5713 5711 5709 5708 5707 5705 5704 5703 5703 5703 5702 5701 5701 5700 5700 5701 5701 5700 5699 5699 5698 5698 5698 5697 5697 5697 5696 5696 5696 5695 5696 5695 5695 5694 5694 5693 5693 5693
5717 5715 5712 5710 5709 5708 5706 5704 5703 5701 5700 5699 5698 5698 5697 5697 5697 5696 5696 5695 5695 5696 5695 5694 5694 5694 5694 5694 5694 5693 5693 5693 5693 5692 5693 5693 5693 5693 5693 5692 5691 5691 5690
5712 5709 5707 5705 5704 5702 5700 5698 5696 5694 5693 5692 5692 5692 5692 5692 5692 5691 5691 5691 5691 5691 5691 5690 5689 5689 5689 5690 5690 5689 5689 5689 5689 5689 5689 5690 5690 5690 5690 5689 5689 5689 5688
5705 5703 5701 5700 5698 5696 5694 5692 5690 5688 5686 5685 5686 5687 5687 5686 5687 5687 5686 5686 5686 5686 5685 5685 5684 5685 5685 5685 5685 5685 5684 5685 5685 5685 5685 5686 5686 5687 5687 5687 5687 5687 5686
5699 5698 5695 5693 5691 5689 5687 5685 5683 5682 5680 5679 5680 5680 5680 5681 5681 5681 5681 5681 5680 5680 5679 5679 5679 5679 5680 5680 5680 5680 5680 5680 5681 5681 5681 5681 5682 5683 5683 5684 5684 5684 5684
5694 5692 5689 5686 5685 5682 5680 5679 5676 5674 5673 5673 5670 5669 5672 5674 5675 5675 5675 5674 5674 5674 5674 5674 5674 5674 5674 5675 5675 5675 5675 5676 5676 5676 5677 5677 5677 5678 5679 5680 5681 5681 5681
5688 5686 5683 5680 5678 5675 5673 5672 5669 5666 5665 5665 5661 5658 5657 5661 5666 5669 5669 5668 5667 5667 5668 5668 5668 5668 5668 5669 5670 5670 5670 5670 5670 5671 5672 5672 5673 5674 5675 5675 5676 5677 5677
5682 5680 5677 5674 5672 5669 5666 5664 5662 5660 5657 5657 5656 5651 5648 5647 5652 5657 5660 5661 5660 5660 5660 5661 5662 5662 5662 5662 5663 5664 5664 5665 5665 5666 5667 5668 5668 5669 5670 5671 5672 5672 5673
5676 5674 5671 5668 5665 5663 5660 5658 5656 5653 5651 5648 5648 5648 5646 5645 5642 5644 5648 5651 5652 5652 5652 5654 5654 5655 5656 5656 5657 5658 5658 5659 5660 5660 5661 5663 5664 5665 5665 5666 5667 5668 5669
5670 5667 5664 5661 5659 5657 5654 5652 5650 5647 5645 5643 5641 5640 5639 5638 5638 5635 5636 5639 5642 5644 5645 5646 5647 5647 5649 5650 5651 5651 5652 5653 5653 5654 5655 5656 5658 5659 5660 5661 5662 5663 5664
5663 5661 5658 5656 5653 5651 5649 5647 5644 5642 5640 5638 5637 5635 5633 5631 5631 5629 5628 5630 5631 5634 5637 5639 5639 5640 5642 5643 5644 5645 5646 5647 5647 5648 5649 5650 5652 5653 5654 5655 5656 5657 5658
5656 5654 5652 5650 5647 5645 5644 5641 5638 5636 5635 5633 5632 5630 5629 5627 5626 5625 5623 5622 5623 5625 5628 5631 5632 5633 5634 5636 5637 5638 5639 5640 5641 5642 5643 5644 5645 5647 5648 5649 5650 5651 5652
5652 5650 5647 5645 5643 5640 5638 5635 5633 5631 5630 5628 5627 5626 5624 5622 5621 5620 5618 5616 5615 5615 5617 5620 5624 5626 5627 5628 5630 5631 5632 5634 5635 5636 5637 5638 5639 5640 5641 5642 5643 5644 5645
5648 5645 5642 5640 5637 5635 5632 5629 5627 5625 5624 5622 5621 5619 5618 5617 5616 5615 5613 5611 5608 5606 5608 5612 5614 5618 5620 5621 5622 5623 5625 5627 5628 5629 5630 5631 5632 5633 5634 5635 5636 5637 5638
5643 5640 5637 5635 5632 5630 5627 5624 5622 5620 5618 5616 5615 5613 5612 5611 5610 5609 5607 5605 5604 5601 5601 5604 5606 5610 5612 5614 5615 5616 5618 5620 5621 5622 5623 5624 5625 5625 5626 5627 5628 5630 5631
5639 5635 5633 5630 5628 5625 5622 5619 5616 5614 5612 5610 5608 5607 5606 5605 5603 5602 5601 5599 5597 5596 5595 5597 5599 5602 5604 5605 5607 5609 5611 5612 5614 5616 5617 5617 5618 5618 5619 5620 5621 5622 5624
5634 5632 5628 5626 5623 5620 5616 5613 5611 5608 5606 5604 5602 5601 5599 5599 5597 5596 5594 5593 5592 5591 5589 5590 5592 5594 5596 5598 5599 5600 5603 5605 5607 5609 5610 5610 5611 5611 5611 5612 5614 5615 5616
5630 5627 5624 5621 5618 5615 5612 5609 5606 5603 5601 5599 5597 5595 5593 5592 5590 5590 5589 5587 5586 5587 5585 5584 5586 5587 5589 5591 5591 5593 5595 5597 5599 5601 5602 5604 5604 5605 5605 5606 5607 5608 5609
5626 5622 5620 5617 5614 5610 5607 5605 5602 5599 5596 5594 5592 5590 5589 5587 5585 5584 5583 5582 5581 5580 5579 5579 5579 5581 5581 5583 5582 5583 5586 5588 5590 5593 5595 5596 5597 5598 5599 5600 5601 5602 5602
5622 5619 5616 5613 5609 5606 5603 5600 5597 5595 5592 5589 5588 5586 5585 5584 5583 5581 5580 5578 5577 5575 5573 5572 5573 5574 5574 5575 5575 5577 5578 5580 5582 5584 5585 5587 5589 5590 5592 5593 5594 5595 5597
5618 5615 5612 5608 5605 5603 5600 5597 5594 5590 5587 5585 5583 5581 5581 5580 5579 5578 5576 5575 5574 5571 5569 5568 5568 5568 5569 5569 5570 5570 5570 5571 5573 5576 5576 5579 5581 5583 5586 5587 5589 5590 5591
5615 5612 5609 5605 5602 5600 5598 5595 5591 5587 5584 5581 5579 5577 5577 5577 5574 5572 5571 5571 5570 5569 5568 5565 5564 5564 5565 5565 5565 5564 5564 5564 5567 5569 5569 5572 5575 5577 5580 5583 5584 5586 5586
5612 5609 5606 5603 5599 5597 5595 5592 5589 5584 5581 5578 5576 5574 5572 5571 5570 5567 5566 5565 5565 5565 5565 5563 5562 5562 5562 5562 5561 5560 5560 5559 5561 5563 5563 5564 5569 5571 5576 5577 5579 5580 5581
5610 5608 5605 5601 5598 5595 5593 5590 5586 5581 5578 5575 5574 5571 5569 5567 5567 5564 5561 5559 5560 5561 5562 5561 5560 5560 5559 5558 5557 5554 5553 5552 5553 5557 5558 5558 5562 5565 5568 5571 5574 5574 5575
5609 5606 5603 5599 5596 5593 5591 5587 5584 5578 5574 5572 5571 5569 5567 5564 5562 5559 5556 5554 5554 5555 5556 5556 5555 5555 5554 5554 5553 5551 5549 5547 5547 5550 5553 5553 5555 5557 5559 5564 5567 5568 5569